Location: Dehesa de la Cepeda
(40.6574°N, 4.3013°W)
Time: 07:54:46
(UTC+00:00)

Courier 1B Rocket - Pass Details

Date: 29 July 2021
Orbit: 920 x 1202 km, 28.3° (Epoch: 26 September)

Event Time Altitude Azimuth Distance (km) Brightness Sun altitude
Exits shadow 04:17:44 11° 226° (SW) 2,545 6.5 -9.6°
Maximum altitude 04:22:25 25° 175° (S) 1,760 6.1 -8.9°
Drops below altitude 10° 04:27:23 10° 122° (ESE) 2,603 7.6 -8.1°
Sets 04:30:24 0° 109° (ESE) 3,550 8.5 -7.6°
